Ana Sayfa
METAR-TAF:

METAR-TAF

Havaalanları :

Alva Regional Airport

Alva, Oklahoma, Amerika Birleşik Devletleri

Enlem: 36-46-23N, Boylam: 098-40-12W, yükseklik: 449 m

Güncel hava durumu gözlemi

Rapor saat 21:15 UTC de 24 dakika önce yapıldı.
Rüzgar kuzeydan 13 kt
Sıcaklık 12°C
Nem 58%
Basınç 1008 hPa
Görüş mesafesi: 16.1 km
3400 ft yükseklikte parçalı bulutlu

METAR: KAVK 242115Z AUTO 36013KT 10SM SCT034 12/04 A2978 RMK AO2 PWINO TSNO

Saat: 15:39 (21:39 UTC)


TAF: eksik

4.000'den fazla havaalanı için hava durumu gözlemleri ve tahminleri (METAR ve TAF raporları).

Kullanılabilir istasyonlar harita üzerinde sarı ve kırmızı noktalarla gösterilir.

İstasyonun adını görmek için fareyi noktanın üzerinde gezdirin.

Sonrasında hava gözlem ve tahminlerini görmek için tıklayın.

Haritayı değiştirmek için: yaklaştırmak için siyah artı işaretli yeşil düğmeye ve uzaklaştırmak için de eksi işaretli düğmeye hızla tıklayın; bitişik haritalar için yeşil okları kullanın.


METAR-TAF: